When you browse on this site, cookies collect data to enhance your experience and personalize the content and advertising you see.
Visit our Privacy Policy to learn more. By continuing to use the site, you agree to this use of cookies and data.
  • In Switzerland
  • List of Countries
  • For 7 days
  • Water Temperature
  • Weather Map
  • Weather Widgets
  • user-avatar
    Login

    Hourly Weather Volkovichi

    Today, 31 March, Tuesday

    Time Temperature Precipitation Wind Pressure Humidity
    00:00 -4°C° 0 mm 2 mps 746 mmHg 53%
    01:00 -4°C° 0 mm 2 mps 746 mmHg 54%
    02:00 -4°C° 0 mm 2 mps 746 mmHg 54%
    03:00 -4°C° 0 mm 2 mps 746 mmHg 53%
    04:00 -2°C° 0 mm 1 mps 746 mmHg 53%
    05:00 -2°C° 0 mm 1 mps 747 mmHg 52%
    06:00 -1°C° 0 mm 1 mps 747 mmHg 47%
    07:00 -1°C° 0 mm 1 mps 747 mmHg 42%
    08:00 0°C° 0 mm 1 mps 748 mmHg 36%
    09:00 +2°C° 0 mm 1 mps 748 mmHg 34%
    10:00 +3°C° 0 mm 1 mps 748 mmHg 32%
    11:00 +4°C° 0 mm 1 mps 748 mmHg 29%
    12:00 +3°C° 0 mm 2 mps 747 mmHg 30%
    13:00 +4°C° 0 mm 2 mps 747 mmHg 31%
    14:00 +3°C° 0 mm 3 mps 747 mmHg 33%
    15:00 +4°C° 0 mm 2 mps 747 mmHg 36%
    16:00 +4°C° 0 mm 2 mps 746 mmHg 39%
    17:00 +4°C° 0 mm 2 mps 746 mmHg 42%
    18:00 +2°C° 0 mm 2 mps 746 mmHg 49%
    19:00 +2°C° 0 mm 1 mps 746 mmHg 56%
    20:00 0°C° 0 mm 1 mps 746 mmHg 64%
    21:00 0°C° 0 mm 1 mps 746 mmHg 66%
    22:00 0°C° 0 mm 1 mps 745 mmHg 69%
    23:00 -3°C° 0 mm 2 mps 745 mmHg 72%

    Tomorrow, 1 April, Wednesday

    Time Temperature Precipitation Wind Pressure Humidity
    00:00 -3°C° 0 mm 2 mps 745 mmHg 74%
    01:00 -3°C° 0 mm 2 mps 745 mmHg 76%
    02:00 -4°C° 0 mm 3 mps 744 mmHg 78%
    03:00 -4°C° 0 mm 3 mps 744 mmHg 77%
    04:00 -4°C° 0 mm 3 mps 743 mmHg 76%
    05:00 -4°C° 0 mm 3 mps 743 mmHg 74%
    06:00 -4°C° 0 mm 4 mps 743 mmHg 70%
    07:00 -4°C° 0 mm 5 mps 743 mmHg 65%
    08:00 -4°C° 0 mm 6 mps 742 mmHg 60%
    09:00 -2°C° 0 mm 6 mps 742 mmHg 58%
    10:00 -1°C° 0 mm 7 mps 741 mmHg 55%
    11:00 0°C° 0 mm 7 mps 741 mmHg 53%
    12:00 +2°C° 0 mm 7 mps 741 mmHg 53%
    13:00 +1°C° 0 mm 8 mps 740 mmHg 54%
    14:00 +2°C° 0 mm 8 mps 740 mmHg 54%
    15:00 +2°C° 0 mm 8 mps 739 mmHg 57%
    16:00 +3°C° 0 mm 7 mps 739 mmHg 60%
    17:00 +3°C° 0 mm 7 mps 739 mmHg 62%
    18:00 +2°C° 0 mm 6 mps 739 mmHg 69%
    19:00 +1°C° 0 mm 5 mps 739 mmHg 76%
    20:00 0°C° 0 mm 4 mps 739 mmHg 83%
    21:00 -1°C° 0 mm 4 mps 738 mmHg 86%
    22:00 -1°C° 0 mm 4 mps 738 mmHg 89%
    23:00 -1°C° 0 mm 5 mps 738 mmHg 92%

    Day after tomorrow, 2 April, Thursday

    Time Temperature Precipitation Wind Pressure Humidity
    00:00 -1°C° 0 mm 4 mps 738 mmHg 91%
    01:00 -1°C° 0 mm 4 mps 738 mmHg 91%
    02:00 -2°C° 0 mm 4 mps 738 mmHg 91%
    03:00 -2°C° 0 mm 5 mps 737 mmHg 92%
    04:00 -2°C° 0 mm 5 mps 737 mmHg 93%
    05:00 -3°C° 0 mm 6 mps 736 mmHg 95%
    06:00 -2°C° 0 mm 6 mps 736 mmHg 93%
    07:00 -2°C° 0 mm 7 mps 736 mmHg 91%
    08:00 -1°C° 0 mm 7 mps 736 mmHg 89%
    09:00 -1°C° 0 mm 7 mps 736 mmHg 86%
    10:00 0°C° 0 mm 7 mps 736 mmHg 83%
    11:00 0°C° 0 mm 7 mps 736 mmHg 79%
    12:00 +2°C° 0.1 mm 7 mps 737 mmHg 75%
    13:00 +3°C° 0.1 mm 7 mps 737 mmHg 71%
    14:00 +3°C° 0.1 mm 7 mps 737 mmHg 67%
    15:00 +3°C° 0 mm 6 mps 737 mmHg 67%
    16:00 +4°C° 0 mm 6 mps 737 mmHg 67%
    17:00 +5°C° 0 mm 5 mps 736 mmHg 67%
    18:00 +3°C° 0 mm 5 mps 736 mmHg 71%
    19:00 +3°C° 0 mm 4 mps 737 mmHg 74%
    20:00 +3°C° 0 mm 4 mps 737 mmHg 78%
    21:00 +1°C° 0 mm 4 mps 736 mmHg 79%
    22:00 +1°C° 0 mm 4 mps 736 mmHg 80%
    23:00 0°C° 0 mm 4 mps 736 mmHg 81%

    3 April, Friday

    Time Temperature Precipitation Wind Pressure Humidity
    00:00 0°C° 0 mm 5 mps 735 mmHg 81%
    01:00 0°C° 0 mm 5 mps 735 mmHg 82%
    02:00 -1°C° 0 mm 5 mps 735 mmHg 82%
    03:00 -1°C° 0 mm 6 mps 734 mmHg 80%
    04:00 -1°C° 0 mm 6 mps 734 mmHg 78%
    05:00 -1°C° 0 mm 7 mps 733 mmHg 76%
    06:00 0°C° 0 mm 7 mps 733 mmHg 74%
    07:00 0°C° 0 mm 8 mps 733 mmHg 73%
    08:00 +1°C° 0 mm 8 mps 733 mmHg 71%
    09:00 +2°C° 0 mm 8 mps 733 mmHg 71%
    10:00 +2°C° 0 mm 9 mps 733 mmHg 70%
    11:00 +3°C° 0 mm 9 mps 733 mmHg 70%
    12:00 +2°C° 0.2 mm 8 mps 734 mmHg 72%
    13:00 +2°C° 0.2 mm 8 mps 734 mmHg 74%
    14:00 +2°C° 0.2 mm 8 mps 734 mmHg 76%
    15:00 +2°C° 0.2 mm 8 mps 734 mmHg 70%
    16:00 +4°C° 0.2 mm 8 mps 735 mmHg 63%
    17:00 +4°C° 0.2 mm 8 mps 735 mmHg 57%
    18:00 +3°C° 0 mm 7 mps 736 mmHg 59%
    19:00 +2°C° 0 mm 6 mps 737 mmHg 62%
    20:00 +1°C° 0 mm 5 mps 737 mmHg 64%
    21:00 +1°C° 0 mm 5 mps 738 mmHg 67%
    22:00 0°C° 0 mm 5 mps 739 mmHg 69%
    23:00 0°C° 0 mm 5 mps 739 mmHg 71%

    4 April, Saturday

    Time Temperature Precipitation Wind Pressure Humidity
    00:00 -1°C° 0 mm 5 mps 740 mmHg 73%
    01:00 -1°C° 0 mm 5 mps 740 mmHg 75%
    02:00 -2°C° 0 mm 5 mps 740 mmHg 77%
    03:00 -2°C° 0 mm 5 mps 741 mmHg 77%
    04:00 -2°C° 0 mm 5 mps 742 mmHg 78%
    05:00 -4°C° 0 mm 5 mps 742 mmHg 79%
    06:00 -2°C° 0 mm 5 mps 743 mmHg 75%
    07:00 -2°C° 0 mm 6 mps 743 mmHg 72%
    08:00 -1°C° 0 mm 6 mps 744 mmHg 69%
    09:00 +1°C° 0 mm 6 mps 744 mmHg 62%
    10:00 +2°C° 0 mm 7 mps 745 mmHg 56%
    11:00 +3°C° 0 mm 7 mps 745 mmHg 49%
    12:00 +4°C° 0 mm 7 mps 745 mmHg 49%
    13:00 +4°C° 0 mm 7 mps 746 mmHg 48%
    14:00 +4°C° 0 mm 8 mps 746 mmHg 48%
    15:00 +4°C° 0 mm 7 mps 746 mmHg 47%
    16:00 +4°C° 0 mm 7 mps 746 mmHg 47%
    17:00 +4°C° 0 mm 7 mps 747 mmHg 46%
    18:00 +3°C° 0 mm 6 mps 747 mmHg 49%
    19:00 +1°C° 0 mm 5 mps 748 mmHg 53%
    20:00 0°C° 0 mm 4 mps 749 mmHg 57%
    21:00 -1°C° 0 mm 4 mps 750 mmHg 62%
    22:00 0°C° 0 mm 3 mps 750 mmHg 67%
    23:00 -1°C° 0 mm 3 mps 751 mmHg 73%

    5 April, Sunday

    Time Temperature Precipitation Wind Pressure Humidity
    00:00 -2°C° 0 mm 3 mps 752 mmHg 77%
    01:00 -2°C° 0 mm 2 mps 752 mmHg 82%
    02:00 -2°C° 0 mm 2 mps 753 mmHg 86%
    03:00 -3°C° 0 mm 2 mps 753 mmHg 86%
    04:00 -1°C° 0 mm 1 mps 754 mmHg 86%
    05:00 -1°C° 0 mm 1 mps 754 mmHg 86%
    06:00 0°C° 0 mm 1 mps 755 mmHg 77%
    07:00 +1°C° 0 mm 1 mps 755 mmHg 67%
    08:00 +3°C° 0 mm 1 mps 756 mmHg 57%
    09:00 +4°C° 0 mm 1 mps 756 mmHg 49%
    10:00 +4°C° 0 mm 2 mps 756 mmHg 41%
    11:00 +5°C° 0 mm 2 mps 756 mmHg 33%
    12:00 +5°C° 0 mm 3 mps 756 mmHg 34%
    13:00 +7°C° 0 mm 3 mps 755 mmHg 34%
    14:00 +8°C° 0 mm 3 mps 755 mmHg 35%
    15:00 +8°C° 0 mm 3 mps 755 mmHg 38%
    16:00 +7°C° 0 mm 4 mps 754 mmHg 42%
    17:00 +7°C° 0 mm 4 mps 754 mmHg 45%
    18:00 +5°C° 0 mm 3 mps 753 mmHg 52%
    19:00 +4°C° 0 mm 3 mps 753 mmHg 59%
    20:00 +2°C° 0 mm 3 mps 753 mmHg 66%
    21:00 +2°C° 0 mm 3 mps 753 mmHg 65%
    22:00 +2°C° 0 mm 3 mps 753 mmHg 64%
    23:00 +1°C° 0 mm 4 mps 753 mmHg 63%
    Show more